| time (UTC) | temp F | wind direction | speed knots | gust knots | rain 1hr in | rain 24hr in | rain mn in | humidity % | barometer mb |
| 20260509203503 | 93 | 78 | 1.7 | 5.2 | 0.00 | 0.00 | 0.00 | 10 | 1020.8 |
| 20260509203003 | 93 | 112 | 3.5 | 7.0 | 0.00 | 0.00 | 0.00 | 10 | 1020.7 |
| 20260509202504 | 92 | 344 | 3.5 | 7.8 | 0.00 | 0.00 | 0.00 | 10 | 1020.7 |
| 20260509202004 | 92 | 320 | 4.3 | 7.0 | 0.00 | 0.00 | 0.00 | 10 | 1020.8 |
| 20260509201003 | 92 | 101 | 0.9 | 2.6 | 0.00 | 0.00 | 0.00 | 10 | 1020.9 |
| 20260509200003 | 91 | 14 | 0.9 | 2.6 | 0.00 | 0.00 | 0.00 | 11 | 1021.0 |
| 20260509195503 | 90 | 340 | 2.6 | 7.0 | 0.00 | 0.00 | 0.00 | 11 | 1021.0 |
| 20260509195004 | 90 | 71 | 3.5 | 6.1 | 0.00 | 0.00 | 0.00 | 11 | 1021.1 |
| 20260509194504 | 89 | 0 | 1.7 | 2.6 | 0.00 | 0.00 | 0.00 | 11 | 1021.2 |
| 20260509194003 | 89 | 13 | 2.6 | 7.0 | 0.00 | 0.00 | 0.00 | 11 | 1021.3 |
| 20260509193503 | 89 | 83 | 2.6 | 6.1 | 0.00 | 0.00 | 0.00 | 11 | 1021.4 |
| 20260509193003 | 88 | 335 | 3.5 | 7.8 | 0.00 | 0.00 | 0.00 | 11 | 1021.4 |
| 20260509191004 | 89 | 43 | 2.6 | 7.0 | 0.00 | 0.00 | 0.00 | 12 | 1021.7 |
| 20260509190003 | 89 | 77 | 1.7 | 7.0 | 0.00 | 0.00 | 0.00 | 12 | 1021.8 |
| 20260509185503 | 89 | 31 | 3.5 | 8.7 | 0.00 | 0.00 | 0.00 | 12 | 1021.8 |
| 20260509185004 | 88 | 9 | 5.2 | 10.4 | 0.00 | 0.00 | 0.00 | 12 | 1021.7 |
| 20260509184003 | 88 | 355 | 5.2 | 10.4 | 0.00 | 0.00 | 0.00 | 12 | 1021.8 |
| 20260509183503 | 88 | 44 | 1.7 | 7.0 | 0.00 | 0.00 | 0.00 | 13 | 1021.8 |
| 20260509183004 | 87 | 55 | 4.3 | 8.7 | 0.00 | 0.00 | 0.00 | 13 | 1021.8 |
| 20260509182504 | 87 | 25 | 4.3 | 10.4 | 0.00 | 0.00 | 0.00 | 12 | 1021.8 |
| 20260509182003 | 87 | 23 | 4.3 | 8.7 | 0.00 | 0.00 | 0.00 | 13 | 1021.8 |
| 20260509181503 | 87 | 28 | 2.6 | 6.1 | 0.00 | 0.00 | 0.00 | 12 | 1021.8 |
| 20260509181003 | 87 | 16 | 3.5 | 7.0 | 0.00 | 0.00 | 0.00 | 13 | 1021.8 |
| 20260509180504 | 87 | 21 | 3.5 | 8.7 | 0.00 | 0.00 | 0.00 | 13 | 1021.8 |
| 20260509180003 | 87 | 74 | 2.6 | 10.4 | 0.00 | 0.00 | 0.00 | 13 | 1021.8 |
| 20260509175004 | 87 | 343 | 4.3 | 7.0 | 0.00 | 0.00 | 0.00 | 13 | 1021.7 |
| 20260509174503 | 87 | 26 | 0.9 | 10.4 | 0.00 | 0.00 | 0.00 | 13 | 1021.7 |
| 20260509173503 | 86 | 46 | 2.6 | 7.8 | 0.00 | 0.00 | 0.00 | 13 | 1021.8 |
| 20260509173003 | 85 | 332 | 3.5 | 7.0 | 0.00 | 0.00 | 0.00 | 13 | 1021.8 |
| 20260509172003 | 86 | 36 | 5.2 | 8.7 | 0.00 | 0.00 | 0.00 | 13 | 1021.9 |
| 20260509171503 | 85 | 37 | 2.6 | 8.7 | 0.00 | 0.00 | 0.00 | 13 | 1021.9 |
| 20260509171003 | 85 | 50 | 3.5 | 8.7 | 0.00 | 0.00 | 0.00 | 13 | 1021.8 |
| 20260509170504 | 86 | 42 | 4.3 | 8.7 | 0.00 | 0.00 | 0.00 | 13 | 1021.7 |
| 20260509170003 | 85 | 28 | 3.5 | 7.8 | 0.00 | 0.00 | 0.00 | 13 | 1021.7 |
| 20260509165504 | 85 | 49 | 1.7 | 4.3 | 0.00 | 0.00 | 0.00 | 13 | 1021.5 |
| 20260509165004 | 85 | 330 | 2.6 | 4.3 | 0.00 | 0.00 | 0.00 | 13 | 1021.5 |
| 20260509164503 | 84 | 251 | 0.9 | 2.6 | 0.00 | 0.00 | 0.00 | 13 | 1021.5 |
| 20260509164003 | 84 | 196 | 0.9 | 5.2 | 0.00 | 0.00 | 0.00 | 13 | 1021.5 |
| 20260509163003 | 84 | 142 | 1.7 | 5.2 | 0.00 | 0.00 | 0.00 | 13 | 1021.4 |
| 20260509162503 | 83 | 95 | 0.0 | 2.6 | 0.00 | 0.00 | 0.00 | 14 | 1021.4 |
| 20260509162004 | 82 | 247 | 0.0 | 1.7 | 0.00 | 0.00 | 0.00 | 14 | 1021.3 |
| 20260509161504 | 82 | 190 | 0.9 | 6.1 | 0.00 | 0.00 | 0.00 | 14 | 1021.4 |
| 20260509161004 | 82 | 155 | 0.9 | 7.8 | 0.00 | 0.00 | 0.00 | 14 | 1021.3 |
| 20260509160004 | 82 | 161 | 1.7 | 7.8 | 0.00 | 0.00 | 0.00 | 14 | 1021.3 |
| 20260509155504 | 81 | 146 | 2.6 | 5.2 | 0.00 | 0.00 | 0.00 | 14 | 1021.4 |
| 20260509155003 | 81 | 132 | 0.9 | 4.3 | 0.00 | 0.00 | 0.00 | 15 | 1021.5 |
| 20260509154503 | 80 | 144 | 1.7 | 4.3 | 0.00 | 0.00 | 0.00 | 15 | 1021.4 |
| 20260509153504 | 80 | 141 | 2.6 | 6.1 | 0.00 | 0.00 | 0.00 | 15 | 1021.4 |
| 20260509153004 | 80 | 120 | 2.6 | 6.1 | 0.00 | 0.00 | 0.00 | 15 | 1021.5 |
| 20260509152003 | 80 | 113 | 1.7 | 5.2 | 0.00 | 0.00 | 0.00 | 15 | 1021.4 |
| 20260509150503 | 79 | 147 | 0.9 | 2.6 | 0.00 | 0.00 | 0.00 | 15 | 1021.2 |
| 20260509150004 | 78 | 171 | 0.9 | 2.6 | 0.00 | 0.00 | 0.00 | 15 | 1021.1 |
| 20260509145504 | 78 | 197 | 0.9 | 2.6 | 0.00 | 0.00 | 0.00 | 15 | 1021.2 |
| 20260509144503 | 76 | 231 | 0.0 | 1.7 | 0.00 | 0.00 | 0.00 | 16 | 1021.3 |
| 20260509144004 | 75 | 243 | 0.0 | 0.9 | 0.00 | 0.00 | 0.00 | 17 | 1021.3 |
| 20260509143503 | 74 | 243 | 0.0 | 0.0 | 0.00 | 0.00 | 0.00 | 17 | 1021.2 |
| 20260509143004 | 74 | 243 | 0.0 | 0.9 | 0.00 | 0.00 | 0.00 | 17 | 1021.2 |
| 20260509142504 | 73 | 243 | 0.0 | 0.9 | 0.00 | 0.00 | 0.00 | 17 | 1021.3 |
| 20260509142003 | 72 | 243 | 0.0 | 0.0 | 0.00 | 0.00 | 0.00 | 17 | 1021.2 |
| 20260509141504 | 72 | 243 | 0.0 | 0.0 | 0.00 | 0.00 | 0.00 | 18 | 1021.2 |
| 20260509135503 | 69 | 243 | 0.9 | 2.6 | 0.00 | 0.00 | 0.00 | 21 | 1021.0 |
| 20260509135004 | 68 | 242 | 0.9 | 2.6 | 0.00 | 0.00 | 0.00 | 21 | 1020.9 |
| 20260509134503 | 67 | 242 | 0.9 | 2.6 | 0.00 | 0.00 | 0.00 | 21 | 1020.8 |
| 20260509134003 | 67 | 241 | 0.0 | 1.7 | 0.00 | 0.00 | 0.00 | 22 | 1020.9 |
| 20260509133504 | 66 | 240 | 1.7 | 4.3 | 0.00 | 0.00 | 0.00 | 22 | 1020.6 |
| 20260509133003 | 64 | 261 | 1.7 | 2.6 | 0.00 | 0.00 | 0.00 | 23 | 1020.6 |
| 20260509132504 | 64 | 236 | 0.0 | 1.7 | 0.00 | 0.00 | 0.00 | 24 | 1020.6 |
| 20260509132003 | 63 | 235 | 0.0 | 1.7 | 0.00 | 0.00 | 0.00 | 24 | 1020.6 |
| 20260509131503 | 63 | 235 | 0.0 | 0.9 | 0.00 | 0.00 | 0.00 | 24 | 1020.4 |
| 20260509130503 | 63 | 235 | 0.0 | 1.7 | 0.00 | 0.00 | 0.00 | 24 | 1020.4 |
| 20260509130003 | 62 | 235 | 0.9 | 2.6 | 0.00 | 0.00 | 0.00 | 24 | 1020.3 |
| 20260509125503 | 62 | 238 | 0.9 | 1.7 | 0.00 | 0.00 | 0.00 | 25 | 1020.3 |
| 20260509125004 | 62 | 236 | 0.9 | 1.7 | 0.00 | 0.00 | 0.00 | 25 | 1020.2 |
| 20260509124503 | 62 | 236 | 0.0 | 0.9 | 0.00 | 0.00 | 0.00 | 25 | 1020.2 |
| 20260509124004 | 62 | 236 | 0.0 | 0.9 | 0.00 | 0.00 | 0.00 | 25 | 1020.1 |
| 20260509123503 | 61 | 236 | 0.0 | 0.9 | 0.00 | 0.00 | 0.00 | 25 | 1020.1 |
| 20260509123005 | 61 | 236 | 0.0 | 0.9 | 0.00 | 0.00 | 0.00 | 25 | 1019.9 |
| 20260509122504 | 62 | 236 | 0.0 | 0.0 | 0.00 | 0.00 | 0.00 | 25 | 1020.1 |
| 20260509121503 | 62 | 236 | 0.0 | 0.9 | 0.00 | 0.00 | 0.00 | 25 | 1020.1 |
| 20260509121004 | 62 | 236 | 0.0 | 1.7 | 0.00 | 0.00 | 0.00 | 25 | 1020.2 |
| 20260509120503 | 61 | 236 | 0.0 | 1.7 | 0.00 | 0.00 | 0.00 | 25 | 1020.1 |
| 20260509120004 | 61 | 236 | 0.0 | 1.7 | 0.00 | 0.00 | 0.00 | 25 | 1020.1 |
| 20260509115504 | 61 | 236 | 0.0 | 0.0 | 0.00 | 0.00 | 0.00 | 25 | 1020.1 |
| 20260509114503 | 62 | 236 | 0.0 | 1.7 | 0.00 | 0.00 | 0.00 | 25 | 1020.1 |
| 20260509114004 | 62 | 236 | 0.9 | 1.7 | 0.00 | 0.00 | 0.00 | 25 | 1020.1 |
| 20260509113505 | 63 | 235 | 0.0 | 0.0 | 0.00 | 0.00 | 0.00 | 24 | 1020.1 |
| 20260509112504 | 63 | 234 | 0.9 | 1.7 | 0.00 | 0.00 | 0.00 | 24 | 1020.1 |
| 20260509112003 | 64 | 234 | 0.0 | 1.7 | 0.00 | 0.00 | 0.00 | 23 | 1020.2 |
| 20260509111504 | 64 | 234 | 0.0 | 0.9 | 0.00 | 0.00 | 0.00 | 23 | 1020.1 |
| 20260509111003 | 65 | 234 | 0.0 | 1.7 | 0.00 | 0.00 | 0.00 | 23 | 1020.1 |
| 20260509110504 | 65 | 235 | 0.9 | 2.6 | 0.00 | 0.00 | 0.00 | 23 | 1020.2 |
| 20260509110003 | 66 | 244 | 2.6 | 6.1 | 0.00 | 0.00 | 0.00 | 22 | 1020.2 |
| 20260509105503 | 66 | 246 | 3.5 | 7.0 | 0.00 | 0.00 | 0.00 | 22 | 1020.2 |
| 20260509105004 | 65 | 263 | 2.6 | 5.2 | 0.00 | 0.00 | 0.00 | 23 | 1020.1 |
| 20260509104504 | 66 | 255 | 2.6 | 4.3 | 0.00 | 0.00 | 0.00 | 23 | 1020.1 |
| 20260509104003 | 65 | 238 | 1.7 | 4.3 | 0.00 | 0.00 | 0.00 | 23 | 1020.1 |
| 20260509103004 | 63 | 242 | 0.0 | 0.0 | 0.00 | 0.00 | 0.00 | 25 | 1020.2 |
| 20260509102004 | 61 | 244 | 0.0 | 0.0 | 0.00 | 0.00 | 0.00 | 25 | 1020.3 |
| 20260509101504 | 61 | 245 | 0.0 | 0.0 | 0.00 | 0.00 | 0.00 | 25 | 1020.3 |
| 20260509101004 | 61 | 245 | 0.0 | 0.0 | 0.00 | 0.00 | 0.00 | 25 | 1020.3 |
| 20260509100003 | 61 | 245 | 0.0 | 0.0 | 0.00 | 0.00 | 0.00 | 24 | 1020.3 |
| 20260509095004 | 61 | 245 | 0.0 | 0.0 | 0.00 | 0.00 | 0.00 | 25 | 1020.4 |
| 20260509094004 | 61 | 245 | 0.0 | 0.0 | 0.00 | 0.00 | 0.00 | 24 | 1020.4 |
| 20260509093504 | 61 | 245 | 0.0 | 0.0 | 0.00 | 0.00 | 0.00 | 24 | 1020.4 |
| 20260509092503 | 63 | 245 | 0.0 | 0.0 | 0.00 | 0.00 | 0.00 | 23 | 1020.5 |
| 20260509092004 | 63 | 245 | 0.0 | 0.0 | 0.00 | 0.00 | 0.00 | 23 | 1020.5 |
| 20260509091503 | 64 | 245 | 0.0 | 0.9 | 0.00 | 0.00 | 0.00 | 23 | 1020.5 |
| 20260509091003 | 65 | 245 | 0.0 | 0.0 | 0.00 | 0.00 | 0.00 | 22 | 1020.6 |
| 20260509090503 | 65 | 245 | 0.0 | 0.9 | 0.00 | 0.00 | 0.00 | 22 | 1020.5 |
| 20260509085504 | 66 | 245 | 0.0 | 1.7 | 0.00 | 0.00 | 0.00 | 22 | 1020.6 |
| 20260509085004 | 66 | 248 | 0.0 | 1.7 | 0.00 | 0.00 | 0.00 | 22 | 1020.7 |
| 20260509084503 | 67 | 248 | 0.0 | 2.6 | 0.00 | 0.00 | 0.00 | 21 | 1020.6 |
| 20260509084004 | 67 | 263 | 0.0 | 2.6 | 0.00 | 0.00 | 0.00 | 21 | 1020.7 |
| 20260509083504 | 67 | 249 | 0.0 | 1.7 | 0.00 | 0.00 | 0.00 | 21 | 1020.6 |
| 20260509083003 | 67 | 246 | 0.0 | 0.9 | 0.00 | 0.00 | 0.00 | 21 | 1020.6 |
| 20260509082504 | 68 | 248 | 0.0 | 0.9 | 0.00 | 0.00 | 0.00 | 20 | 1020.9 |
| 20260509082004 | 68 | 239 | 0.0 | 0.0 | 0.00 | 0.00 | 0.00 | 20 | 1020.9 |
| 20260509081504 | 68 | 236 | 0.0 | 0.0 | 0.00 | 0.00 | 0.00 | 20 | 1020.9 |
| 20260509081005 | 68 | 240 | 0.0 | 0.9 | 0.00 | 0.00 | 0.00 | 20 | 1021.0 |
| 20260509075503 | 67 | 227 | 0.0 | 0.0 | 0.00 | 0.00 | 0.00 | 21 | 1020.9 |
| 20260509075004 | 67 | 227 | 0.0 | 1.7 | 0.00 | 0.00 | 0.00 | 21 | 1020.9 |
| 20260509074504 | 67 | 227 | 0.0 | 0.0 | 0.00 | 0.00 | 0.00 | 20 | 1021.1 |
| 20260509074004 | 68 | 227 | 0.0 | 0.0 | 0.00 | 0.00 | 0.00 | 20 | 1021.0 |
| 20260509073505 | 68 | 227 | 0.0 | 0.0 | 0.00 | 0.00 | 0.00 | 21 | 1021.0 |
| 20260509073004 | 68 | 227 | 0.0 | 0.0 | 0.00 | 0.00 | 0.00 | 21 | 1021.0 |
| 20260509072504 | 68 | 232 | 0.0 | 0.0 | 0.00 | 0.00 | 0.00 | 21 | 1021.0 |
| 20260509072003 | 68 | 229 | 0.0 | 0.0 | 0.00 | 0.00 | 0.00 | 21 | 1021.1 |
| 20260509071504 | 68 | 228 | 0.0 | 0.0 | 0.00 | 0.00 | 0.00 | 21 | 1021.1 |
| 20260509071003 | 67 | 229 | 0.0 | 0.0 | 0.00 | 0.00 | 0.00 | 21 | 1021.1 |
| 20260509070504 | 68 | 229 | 0.0 | 0.0 | 0.00 | 0.00 | 0.00 | 21 | 1021.2 |
| 20260509070004 | 67 | 229 | 0.0 | 0.0 | 0.00 | 0.00 | 0.00 | 22 | 1021.2 |
| 20260509065504 | 67 | 229 | 0.0 | 0.0 | 0.00 | 0.00 | 0.00 | 22 | 1021.2 |
| 20260509065004 | 67 | 229 | 0.0 | 0.0 | 0.00 | 0.00 | 0.00 | 23 | 1021.2 |
| 20260509064503 | 66 | 228 | 0.0 | 0.0 | 0.00 | 0.00 | 0.00 | 23 | 1021.3 |
| 20260509064003 | 67 | 229 | 0.0 | 0.0 | 0.00 | 0.00 | 0.00 | 23 | 1021.3 |
| 20260509062504 | 67 | 225 | 0.0 | 0.0 | 0.00 | 0.00 | 0.00 | 24 | 1021.2 |
| 20260509062004 | 66 | 223 | 0.0 | 0.0 | 0.00 | 0.00 | 0.00 | 24 | 1021.2 |
| 20260509061503 | 66 | 201 | 0.0 | 0.0 | 0.00 | 0.00 | 0.00 | 24 | 1021.1 |
| 20260509060503 | 66 | 198 | 0.0 | 0.0 | 0.00 | 0.00 | 0.00 | 25 | 1021.2 |
| 20260509060005 | 66 | 200 | 0.0 | 0.0 | 0.00 | 0.00 | 0.00 | 24 | 1021.1 |
| 20260509055504 | 66 | 259 | 0.0 | 0.0 | 0.00 | 0.00 | 0.00 | 24 | 1021.2 |
| 20260509055005 | 66 | 259 | 0.0 | 0.0 | 0.00 | 0.00 | 0.00 | 24 | 1021.2 |
| 20260509054503 | 67 | 259 | 0.0 | 0.0 | 0.00 | 0.00 | 0.00 | 24 | 1021.2 |
| 20260509054004 | 67 | 260 | 0.0 | 0.0 | 0.00 | 0.00 | 0.00 | 24 | 1021.2 |
| 20260509053504 | 68 | 260 | 0.0 | 0.0 | 0.00 | 0.00 | 0.00 | 24 | 1021.2 |
| 20260509052504 | 69 | 260 | 0.0 | 0.0 | 0.00 | 0.00 | 0.00 | 24 | 1021.2 |
| 20260509052005 | 69 | 260 | 0.0 | 0.0 | 0.00 | 0.00 | 0.00 | 23 | 1021.2 |
| 20260509051504 | 69 | 260 | 0.0 | 0.0 | 0.00 | 0.00 | 0.00 | 23 | 1021.1 |
| 20260509051003 | 69 | 260 | 0.0 | 0.0 | 0.00 | 0.00 | 0.00 | 22 | 1021.0 |
| 20260509050504 | 70 | 261 | 0.0 | 0.0 | 0.00 | 0.00 | 0.00 | 23 | 1021.0 |
| 20260509045503 | 71 | 261 | 0.0 | 0.0 | 0.00 | 0.00 | 0.00 | 23 | 1021.3 |
| 20260509045004 | 71 | 261 | 0.0 | 0.0 | 0.00 | 0.00 | 0.00 | 25 | 1021.2 |
| 20260509044504 | 72 | 261 | 0.0 | 0.0 | 0.00 | 0.00 | 0.00 | 26 | 1021.2 |
| 20260509043503 | 72 | 261 | 0.0 | 0.0 | 0.00 | 0.00 | 0.00 | 24 | 1021.1 |
| 20260509043004 | 73 | 261 | 0.0 | 0.0 | 0.00 | 0.00 | 0.00 | 24 | 1021.0 |
| 20260509042504 | 73 | 261 | 0.0 | 0.0 | 0.00 | 0.00 | 0.00 | 24 | 1020.8 |
| 20260509042004 | 73 | 261 | 0.0 | 0.0 | 0.00 | 0.00 | 0.00 | 24 | 1020.8 |
| 20260509041505 | 74 | 262 | 0.0 | 0.0 | 0.00 | 0.00 | 0.00 | 24 | 1020.7 |
| 20260509041004 | 74 | 263 | 0.0 | 0.0 | 0.00 | 0.00 | 0.00 | 24 | 1020.8 |
| 20260509040503 | 75 | 263 | 0.0 | 0.0 | 0.00 | 0.00 | 0.00 | 25 | 1020.7 |
| 20260509035504 | 77 | 288 | 0.0 | 0.0 | 0.00 | 0.00 | 0.00 | 24 | 1020.7 |
| 20260509035003 | 77 | 11 | 0.0 | 0.0 | 0.00 | 0.00 | 0.00 | 24 | 1020.7 |
| 20260509034504 | 77 | 13 | 0.0 | 0.0 | 0.00 | 0.00 | 0.00 | 25 | 1020.6 |
| 20260509034004 | 77 | 325 | 0.0 | 0.0 | 0.00 | 0.00 | 0.00 | 25 | 1020.6 |
| 20260509033503 | 78 | 300 | 0.0 | 0.0 | 0.00 | 0.00 | 0.00 | 25 | 1020.4 |
| 20260509033004 | 78 | 275 | 0.0 | 0.0 | 0.00 | 0.00 | 0.00 | 25 | 1020.3 |
| 20260509032504 | 78 | 250 | 0.0 | 0.0 | 0.00 | 0.00 | 0.00 | 25 | 1020.3 |
| 20260509032004 | 79 | 240 | 0.0 | 0.0 | 0.00 | 0.00 | 0.00 | 26 | 1020.3 |
| 20260509030505 | 79 | 214 | 0.0 | 0.0 | 0.00 | 0.00 | 0.00 | 26 | 1020.1 |
| 20260509025503 | 80 | 222 | 0.0 | 0.0 | 0.00 | 0.00 | 0.00 | 25 | 1019.9 |
| 20260509025003 | 80 | 227 | 0.0 | 0.0 | 0.00 | 0.00 | 0.00 | 25 | 1019.9 |
| 20260509024503 | 81 | 240 | 0.0 | 0.0 | 0.00 | 0.00 | 0.00 | 24 | 1019.8 |
| 20260509024004 | 81 | 224 | 0.0 | 5.2 | 0.00 | 0.00 | 0.00 | 24 | 1019.8 |
| 20260509023504 | 81 | 223 | 0.0 | 5.2 | 0.00 | 0.00 | 0.00 | 24 | 1019.8 |
| 20260509023004 | 82 | 230 | 0.0 | 0.0 | 0.00 | 0.00 | 0.00 | 24 | 1019.8 |
| 20260509022504 | 82 | 216 | 0.0 | 0.0 | 0.00 | 0.00 | 0.00 | 24 | 1019.7 |
| 20260509022003 | 83 | 213 | 0.0 | 8.7 | 0.00 | 0.00 | 0.00 | 24 | 1019.7 |
| 20260509021503 | 83 | 211 | 6.1 | 11.3 | 0.00 | 0.00 | 0.00 | 23 | 1019.7 |
| 20260509021003 | 83 | 215 | 6.1 | 10.4 | 0.00 | 0.00 | 0.00 | 23 | 1019.8 |
| 20260509020503 | 84 | 204 | 8.7 | 13.0 | 0.00 | 0.00 | 0.00 | 23 | 1019.8 |
| 20260509020004 | 84 | 216 | 7.8 | 13.0 | 0.00 | 0.00 | 0.00 | 23 | 1019.8 |
| 20260509015504 | 85 | 214 | 7.8 | 13.0 | 0.00 | 0.00 | 0.00 | 22 | 1019.7 |
| 20260509015004 | 85 | 208 | 7.8 | 13.9 | 0.00 | 0.00 | 0.00 | 21 | 1019.7 |
| 20260509014504 | 86 | 206 | 8.7 | 12.2 | 0.00 | 0.00 | 0.00 | 20 | 1019.7 |
| 20260509014004 | 86 | 211 | 7.8 | 12.2 | 0.00 | 0.00 | 0.00 | 18 | 1019.7 |
| 20260509013503 | 87 | 224 | 8.7 | 14.8 | 0.00 | 0.00 | 0.00 | 18 | 1019.7 |
| 20260509013004 | 87 | 209 | 7.8 | 11.3 | 0.00 | 0.00 | 0.00 | 16 | 1019.8 |
| 20260509012504 | 87 | 216 | 7.8 | 12.2 | 0.00 | 0.00 | 0.00 | 14 | 1019.7 |
| 20260509012003 | 87 | 217 | 8.7 | 13.0 | 0.00 | 0.00 | 0.00 | 15 | 1019.8 |
| 20260509011504 | 88 | 216 | 7.8 | 12.2 | 0.00 | 0.00 | 0.00 | 16 | 1019.8 |
| 20260509011004 | 88 | 201 | 8.7 | 15.6 | 0.00 | 0.00 | 0.00 | 16 | 1019.6 |
| 20260509010504 | 88 | 206 | 8.7 | 12.2 | 0.00 | 0.00 | 0.00 | 14 | 1019.8 |
| 20260509010003 | 88 | 215 | 9.6 | 13.0 | 0.00 | 0.00 | 0.00 | 14 | 1019.8 |
| 20260509005504 | 89 | 216 | 7.8 | 11.3 | 0.00 | 0.00 | 0.00 | 13 | 1019.7 |
| 20260509005004 | 89 | 215 | 9.6 | 14.8 | 0.00 | 0.00 | 0.00 | 12 | 1019.8 |
| 20260509004003 | 89 | 207 | 10.4 | 14.8 | 0.00 | 0.00 | 0.00 | 13 | 1020.1 |
| 20260509003504 | 90 | 202 | 7.8 | 13.0 | 0.00 | 0.00 | 0.00 | 12 | 1020.1 |
| 20260509003003 | 90 | 210 | 8.7 | 12.2 | 0.00 | 0.00 | 0.00 | 12 | 1020.2 |
| 20260509002503 | 90 | 210 | 8.7 | 13.9 | 0.00 | 0.00 | 0.00 | 11 | 1020.0 |
| 20260509002003 | 90 | 203 | 10.4 | 13.9 | 0.00 | 0.00 | 0.00 | 11 | 1020.2 |
| 20260509001504 | 90 | 223 | 7.8 | 13.0 | 0.00 | 0.00 | 0.00 | 11 | 1020.2 |
| 20260509000504 | 91 | 210 | 7.8 | 13.0 | 0.00 | 0.00 | 0.00 | 11 | 1020.4 |
| 20260509000003 | 91 | 215 | 7.8 | 13.0 | 0.00 | 0.00 | 0.00 | 10 | 1020.3 |
| 20260508235503 | 91 | 191 | 8.7 | 13.9 | 0.00 | 0.00 | 0.00 | 10 | 1020.3 |
| 20260508235004 | 91 | 214 | 7.8 | 12.2 | 0.00 | 0.00 | 0.00 | 10 | 1020.4 |
| 20260508234504 | 91 | 198 | 8.7 | 12.2 | 0.00 | 0.00 | 0.00 | 9 | 1020.3 |
| 20260508234003 | 92 | 223 | 7.8 | 13.9 | 0.00 | 0.00 | 0.00 | 10 | 1020.4 |
| 20260508233503 | 91 | 209 | 6.1 | 12.2 | 0.00 | 0.00 | 0.00 | 10 | 1020.4 |
| 20260508232503 | 92 | 181 | 11.3 | 15.6 | 0.00 | 0.00 | 0.00 | 10 | 1020.3 |
| 20260508232004 | 92 | 217 | 9.6 | 13.0 | 0.00 | 0.00 | 0.00 | 9 | 1020.4 |
| 20260508231504 | 93 | 195 | 8.7 | 13.9 | 0.00 | 0.00 | 0.00 | 9 | 1020.5 |
| 20260508231003 | 92 | 210 | 7.8 | 13.0 | 0.00 | 0.00 | 0.00 | 10 | 1020.6 |
| 20260508230504 | 92 | 200 | 11.3 | 15.6 | 0.00 | 0.00 | 0.00 | 9 | 1020.5 |
| 20260508225503 | 92 | 188 | 8.7 | 14.8 | 0.00 | 0.00 | 0.00 | 9 | 1020.6 |
| 20260508225003 | 92 | 196 | 8.7 | 15.6 | 0.00 | 0.00 | 0.00 | 9 | 1020.7 |
| 20260508224503 | 92 | 194 | 9.6 | 14.8 | 0.00 | 0.00 | 0.00 | 9 | 1020.5 |
| 20260508224004 | 92 | 228 | 9.6 | 13.9 | 0.00 | 0.00 | 0.00 | 9 | 1020.6 |
| 20260508223504 | 92 | 214 | 8.7 | 15.6 | 0.00 | 0.00 | 0.00 | 9 | 1020.6 |
| 20260508223004 | 92 | 225 | 9.6 | 14.8 | 0.00 | 0.00 | 0.00 | 9 | 1020.9 |
| 20260508222504 | 92 | 199 | 6.1 | 12.2 | 0.00 | 0.00 | 0.00 | 9 | 1021.0 |
| 20260508222004 | 92 | 219 | 7.8 | 12.2 | 0.00 | 0.00 | 0.00 | 9 | 1020.9 |
| 20260508221504 | 92 | 199 | 8.7 | 15.6 | 0.00 | 0.00 | 0.00 | 9 | 1021.0 |
| 20260508221004 | 92 | 174 | 10.4 | 17.4 | 0.00 | 0.00 | 0.00 | 9 | 1021.1 |
| 20260508220503 | 92 | 203 | 9.6 | 13.9 | 0.00 | 0.00 | 0.00 | 9 | 1021.2 |
| 20260508220003 | 92 | 183 | 10.4 | 15.6 | 0.00 | 0.00 | 0.00 | 9 | 1021.1 |
| 20260508215004 | 92 | 149 | 7.0 | 13.0 | 0.00 | 0.00 | 0.00 | 9 | 1021.2 |
| 20260508214503 | 92 | 236 | 5.2 | 10.4 | 0.00 | 0.00 | 0.00 | 9 | 1021.3 |
| 20260508214003 | 92 | 197 | 5.2 | 11.3 | 0.00 | 0.00 | 0.00 | 9 | 1021.3 |
| 20260508213503 | 92 | 166 | 8.7 | 13.0 | 0.00 | 0.00 | 0.00 | 9 | 1021.4 |
| 20260508213003 | 93 | 210 | 7.0 | 11.3 | 0.00 | 0.00 | 0.00 | 9 | 1021.4 |
| 20260508212503 | 93 | 182 | 7.8 | 12.2 | 0.00 | 0.00 | 0.00 | 9 | 1021.5 |
| 20260508212003 | 92 | 148 | 5.2 | 10.4 | 0.00 | 0.00 | 0.00 | 9 | 1021.5 |
| 20260508211503 | 91 | 116 | 4.3 | 10.4 | 0.00 | 0.00 | 0.00 | 9 | 1021.7 |
| 20260508211005 | 91 | 124 | 3.5 | 7.8 | 0.00 | 0.00 | 0.00 | 10 | 1021.7 |
| 20260508210003 | 92 | 206 | 6.1 | 10.4 | 0.00 | 0.00 | 0.00 | 9 | 1021.9 |
| 20260508205504 | 92 | 232 | 4.3 | 10.4 | 0.00 | 0.00 | 0.00 | 9 | 1021.9 |
| 20260508205004 | 92 | 168 | 1.7 | 7.8 | 0.00 | 0.00 | 0.00 | 10 | 1021.9 |
| 20260508204504 | 92 | 164 | 4.3 | 10.4 | 0.00 | 0.00 | 0.00 | 10 | 1021.9 |
| 20260508204004 | 92 | 148 | 6.1 | 11.3 | 0.00 | 0.00 | 0.00 | 9 | 1021.9 |